SCP
0 0 1 1 0 0 0 0 0 0 0 0 0 0 0 0 0 0 0 1 0 0 0 0 0 0 0 0 0 0 0 0 0 0 1 1 1 1
0 0 1 1 0 0 0 0 0 0 0 0 0 0 0 0 0 0 0 0 0 0 0 0 0 0 0 0 0 0 0 0 0 0 0 0 1 1
1 1 1 1 1 1 1 1 1 1 0 0 0 0 0 0 0 0 0 0 0 0 0 0 0 0 0 0 0 0 0 0 0 0 0 0 0 0
1 1 1 1 1 1 1 1 1 1 1 0 0 0 1 1 1 1 0 0 0 0 0 0 0 0 0 0 0 0 0 0 0 0 0 0 0 0
1 1 0 0 0 1 1 1 1 1 1 1 1 0 1 1 1 1 1 1 1 0 0 0 0 0 0 0 0 0 0 0 0 0 0 0 0 0
0 0 0 0 0 1 1 1 1 1 1 1 1 1 1 1 1 1 1 1 1 0 0 0 0 0 0 0 0 0 0 0 0 0 0 0 0 0
0 0 0 0 0 0 0 0 0 1 1 1 1 0 0 0 1 1 1 1 0 0 0 0 0 0 0 0 0 0 0 0 0 0 0 0 0 0
0 0 0 0 0 0 0 0 0 0 0 0 0 0 0 0 0 0 0 0 0 0 0 0 0 0 0 0 0 0 0 0 0 0 0 0 0 0
0 0 0 0 0 0 0 0 0 0 0 0 0 0 0 0 0 0 0 0 0 0 0 0 0 0 0 0 0 0 0 0 0 0 0 0 0 0
0 0 0 0 0 0 0 0 0 0 0 0 0 0 0 0 0 0 0 0 0 0 0 0 0 0 0 0 0 0 0 0 0 0 0 0 0 0
0 0 0 0 0 0 0 0 0 0 0 0 0 0 0 0 0 0 0 0 0 0 0 0 0 0 0 0 0 0 0 0 0 0 0 0 0 0
0 0 0 0 0 0 0 0 0 0 0 0 0 0 0 0 0 0 0 0 0 0 0 0 0 0 0 0 0 0 0 0 0 0 0 0 0 0
0 0 0 0 0 0 0 0 0 0 0 0 0 0 0 0 0 0 0 0 0 0 0 0 0 0 0 0 0 0 0 0 0 0 0 0 0 0
0 0 0 0 0 0 0 0 0 0 0 0 0 0 0 0 0 0 0 0 0 0 0 0 0 0 0 0 0 0 0 0 0 0 0 0 0 0
0 0 0 0 0 0 0 0 0 0 0 0 0 0 0 0 0 0 0 0 0 0 0 0 0 0 0 0 0 0 0 0 0 0 0 0 0 0
0 0 0 0 0 0 0 0 0 0 0 0 0 0 0 0 0 0 0 0 0 0 0 0 0 0 0 0 0 0 0 0 0 0 0 0 0 0
0 0 0 0 0 0 0 0 0 0 0 0 0 0 0 0 0 0 0 0 0 0 0 0 0 0 0 0 0 0 0 0 0 0 0 0 0 0
0 0 0 0 0 0 0 0 0 0 0 0 0 0 0 0 0 0 0 0 0 0 0 0 0 0 0 0 0 0 0 0 0 0 0 0 0 0
0 0 0 0 0 0 0 0 0 0 0 0 0 0 0 0 0 0 0 0 0 0 0 0 0 0 0 0 0 0 0 0 0 0 0 0 0 0
0 0 0 0 0 0 0 0 0 0 0 0 0 0 0 0 0 0 0 0 0 0 0 0 0 0 0 0 0 0 0 0 0 0 0 0 0 0
0 0 0 0 0 0 0 0 0 0 0 0 0 0 0 0 0 0 0 0 0 0 0 0 0 0 0 0 0 0 0 0 0 0 0 0 0 0
0 0 0 0 0 0 0 0 0 0 0 0 0 0 0 0 0 0 0 0 0 0 0 0 0 0 0 0 0 0 0 0 0 0 0 0 0 0
0 0 0 0 0 0 0 0 0 0 0 0 0 0 0 0 0 0 0 0 0 0 0 0 0 0 0 0 0 0 0 0 0 0 0 0 0 0
Wind_Speed
2 2 2 2 1 2 2 3 3 2 2 2 1 2 1 1 2 2 2 3 5 6 6 5 4 4 3 3 2 2 2 2 2 2 3 4 5 5
1 1 1 1 1 1 1 1 2 3 2 2 1 2 2 1 1 0 1 2 2 4 4 4 4 3 3 2 2 1 1 1 0 1 2 2 3 4
1 1 1 1 0 1 1 0 0 2 2 2 1 2 2 2 2 1 2 1 1 2 3 3 3 3 4 3 2 2 2 2 2 1 0 1 2 2
1 0 1 0 0 1 1 0 0 1 2 2 2 2 2 1 1 2 2 2 2 4 4 4 4 5 4 4 3 3 3 2 3 3 3 3 2 1
0 0 0 1 1 1 1 1 0 0 1 1 1 1 1 1 2 2 3 2 2 4 5 6 6 6 6 5 4 4 3 3 3 3 3 3 3 3
2 2 1 1 1 1 1 1 1 1 1 1 0 1 1 1 1 1 2 2 2 3 4 5 6 7 6 6 6 5 4 4 4 4 5 5 5 5
3 4 5 6 7 5 3 2 2 1 1 1 1 1 1 1 1 0 1 1 2 2 2 3 3 3 4 5 6 6 6 5 5 5 5 5 5 5
4 4 5 7 9 9 10 8 6 3 2 2 1 1 1 1 1 1 1 1 1 1 2 2 3 3 3 2 4 5 5 5 5 5 5 4 4 4
4 3 4 5 5 4 7 9 9 10 7 3 2 1 1 1 0 1 1 1 1 0 1 2 2 2 2 3 5 5 4 4 4 4 4 4 4 4
5 5 4 4 4 4 5 6 5 5 4 3 2 1 1 1 0 1 1 2 3 2 2 2 1 1 2 2 3 4 3 4 4 4 4 4 4 4
5 5 4 4 5 5 5 5 4 4 5 7 6 5 6 7 4 3 3 3 2 2 2 2 1 1 1 2 2 3 3 3 3 4 4 3 3 3
4 5 7 5 6 5 4 4 4 2 3 4 5 6 5 6 8 4 2 2 1 1 2 2 1 1 1 1 1 2 2 3 3 3 3 3 2 2
3 3 3 7 7 7 5 3 2 1 2 3 3 4 4 4 4 4 3 2 2 1 1 2 1 1 1 0 1 1 1 1 1 2 2 3 2 1
3 2 3 7 7 7 5 5 6 4 3 3 3 3 3 3 3 3 4 3 2 1 1 2 2 1 2 1 1 2 1 1 1 1 1 2 2 1
2 4 5 7 7 6 8 8 6 3 3 3 2 2 1 2 2 3 4 4 5 4 3 2 3 2 2 1 0 1 1 2 1 1 1 1 1 1
3 4 6 8 6 6 6 5 4 3 3 2 2 2 2 3 3 3 3 3 4 4 4 4 2 2 2 1 1 1 1 1 2 1 1 1 1 1
3 3 4 4 5 5 4 4 4 4 4 3 3 3 3 3 3 3 3 3 3 2 3 4 3 2 1 2 1 0 1 1 1 1 1 1 2 2
5 4 4 4 3 3 3 3 4 4 3 3 3 3 3 2 2 3 3 3 2 2 2 2 3 3 4 3 0 1 1 1 2 1 0 0 2 3
5 3 3 2 2 2 2 2 2 2 2 3 3 2 2 2 2 2 2 2 2 2 2 2 2 2 2 2 5 1 2 1 1 1 1 1 2 3
3 2 2 2 2 2 2 2 2 2 3 3 3 2 2 2 2 2 1 1 1 1 2 2 1 0 2 2 2 4 2 2 1 1 2 1 2 4
1 1 1 1 1 2 1 1 2 2 2 2 2 2 2 2 1 1 1 2 2 1 1 2 3 3 1 1 2 4 4 3 4 3 2 1 2 3
1 1 1 1 1 1 1 1 1 1 2 2 2 2 2 1 1 1 1 1 1 1 2 3 3 3 2 1 1 3 4 5 4 5 6 7 4 3
2 1 1 1 1 1 1 2 2 1 1 1 1 1 1 1 1 1 1 1 1 1 2 2 3 2 2 1 1 2 3 4 3 3 4 6 8 11
Wind_Direction
215 209 211 236 224 212 198 180 176 227 278 282 297 315 294 233 241 209 208 184 187 192 195 197 199 203 202 197 201 202 199 207 230 247 255 255 254 250
205 203 239 267 275 270 237 202 178 179 222 285 290 301 326 358 60 85 155 141 178 184 181 182 183 181 161 143 133 125 128 123 154 238 251 252 248 249
235 212 247 259 299 328 345 10 120 155 191 281 305 333 357 10 14 33 49 63 58 112 142 137 129 125 117 114 105 93 78 74 74 68 32 273 262 254
250 188 282 284 40 345 0 20 25 158 174 241 308 340 350 12 51 48 50 69 62 70 91 110 118 117 113 109 106 99 89 79 72 66 58 48 40 37
75 111 285 60 22 359 18 17 351 66 129 176 282 325 356 32 42 42 52 42 63 72 77 80 89 95 96 98 99 95 89 78 70 66 62 59 55 51
58 59 54 82 77 51 45 19 44 60 76 106 349 351 7 10 49 44 29 22 39 49 57 71 79 85 89 90 88 86 85 84 77 72 69 63 59 57
54 57 62 72 71 68 68 48 49 64 81 89 63 43 28 26 8 329 100 75 45 44 54 48 49 50 53 68 76 79 78 79 82 83 82 76 68 64
71 61 61 58 65 67 68 67 70 80 83 81 72 64 359 347 357 57 108 101 52 16 61 46 49 50 33 43 65 81 84 82 80 81 81 79 73 67
71 63 63 59 60 62 63 61 58 60 70 99 88 54 340 316 5 56 75 94 93 26 76 56 33 51 33 49 63 63 65 65 68 71 71 71 67 62
58 61 67 52 55 70 70 65 55 44 51 65 82 41 25 349 165 162 149 97 68 39 64 87 26 32 39 37 52 57 50 52 48 45 51 54 55 48
54 56 60 52 48 65 74 70 53 32 45 56 57 48 47 48 55 70 66 82 59 12 19 81 69 50 35 15 8 24 22 26 30 31 38 48 51 49
52 47 51 52 45 55 74 78 67 22 27 31 31 26 28 36 47 67 93 99 92 31 356 68 61 64 50 348 343 351 360 358 1 7 15 18 26 54
64 42 33 49 55 56 68 70 76 69 51 53 38 28 26 26 26 33 56 99 104 79 313 86 89 69 92 332 313 310 333 340 352 347 354 351 350 105
76 48 41 52 54 54 58 56 58 64 61 57 51 36 28 18 12 25 37 46 66 103 93 96 103 113 100 60 323 318 315 317 321 320 328 338 339 329
72 73 63 56 49 44 42 47 51 55 62 61 49 24 5 9 25 32 32 38 35 35 41 61 97 102 97 107 324 320 326 326 337 326 326 316 301 340
61 54 52 51 50 42 34 34 39 54 78 75 57 30 26 34 34 34 39 33 36 10 6 27 57 99 91 87 105 24 342 310 319 329 336 328 324 304
73 51 45 41 40 35 31 27 32 42 50 48 52 47 40 37 25 24 44 48 51 20 355 354 9 41 88 123 93 11 335 320 298 307 4 339 307 284
79 67 58 54 54 52 47 32 32 41 44 53 55 53 51 47 31 24 40 52 47 14 354 345 5 18 13 351 232 172 309 295 301 313 88 322 296 292
78 74 72 69 65 64 62 56 35 24 37 53 54 46 47 47 49 40 37 43 34 4 337 345 27 66 50 336 310 276 186 259 312 326 296 223 251 272
74 90 87 85 85 82 74 63 44 35 39 42 41 37 40 51 50 36 33 40 28 4 350 345 350 230 187 219 263 294 263 201 208 259 282 298 284 294
74 86 100 108 105 100 93 82 67 52 41 38 34 31 30 47 36 7 3 14 36 25 342 303 285 296 241 59 345 311 299 266 219 208 213 259 308 321
119 114 116 123 122 116 104 89 70 55 41 39 24 16 15 36 29 9 13 17 342 294 286 296 321 356 32 32 296 287 300 312 306 280 237 205 192 215
160 148 134 126 124 120 112 97 85 55 29 25 18 9 15 12 356 11 2 347 335 331 326 325 337 352 342 311 292 289 294 300 313 326 306 280 252 246